Tracking 19564 objects as of 19-Mar-2019
HD Live streaming from Space Station
objects crossing your sky now

FLOCK 3P 50

Track FLOCK 3P 50 now!
10-day predictions
FLOCK 3P 50 is classified as:


NORAD ID: 42029
Int'l Code: 2017-008CK
Perigee: 491.0 km
Apogee: 504.0 km
Inclination: 97.4 °
Period: 94.4 minutes
Semi major axis: 6868 km
RCS: Unknown
Launch date: February 15, 2017
Source: United States (US)
Launch site: SRIHARIKOTA (SRI)
aabbcc
Your satellite tracking list
Your tracking list is empty




NASA's NSSDC Master Catalog

Two Line Element Set (TLE):
1 42029U 17008CK  19077.42739968 +.00001423 +00000-0 +59600-4 0  9999
2 42029 097.4172 145.4680 0009434 120.8607 239.3560 15.25143969115078
Source of the keplerian elements: AFSPC